Simultaneous Nadir Overpasses (SNOs) Predictions

Prediction of SNOs between GOES-14 and AQUA Satellite Orbit:

Table of predicted SNOs for the next 14.0 days since TLE Epoch: 2/1/2025
Index Date Time (GOES-14) GOES-14 Lat,Lon AQUA Lat,Lon Distance(km) Time Diff (sec)
1 02/02/2025 21:34:57 -0.40,-107.89 -0.10,-106.65 142.48 80
2 02/03/2025 09:56:34 0.40,-107.92 1.16,-111.33 388.20 54
3 02/05/2025 09:35:03 0.40,-107.89 0.13,-106.61 146.44 80
4 02/05/2025 21:57:15 -0.41,-107.85 -1.19,-111.33 395.93 80
5 02/07/2025 21:35:16 -0.42,-107.82 -0.12,-106.60 139.10 80
6 02/08/2025 09:54:40 0.42,-107.85 1.13,-111.29 391.57 80
7 02/10/2025 09:37:58 0.43,-107.82 0.16,-106.55 144.32 80
8 02/10/2025 21:57:31 -0.43,-107.78 -1.17,-111.27 397.53 80
9 02/12/2025 21:35:28 -0.43,-107.75 -0.15,-106.53 139.53 80
10 02/13/2025 09:54:51 0.43,-107.78 1.18,-111.21 390.75 80
